TimeCST,TemperatureF,Dew PointF,Humidity,Sea Level PressureIn,VisibilityMPH,Wind Direction,Wind SpeedMPH,Gust SpeedMPH,PrecipitationIn,Events,Conditions,WindDirDegrees,DateUTC
12:07 AM,24.8,21.2,86,30.18,9.0,West,6.9,-,N/A,,Scattered Clouds,260,2013-01-03 06:07:00
12:55 AM,26.1,21.0,81,30.23,9.0,West,6.9,-,N/A,,Overcast,270,2013-01-03 06:55:00
1:19 AM,26.6,21.2,80,30.19,9.0,West,4.6,-,N/A,,Overcast,270,2013-01-03 07:19:00
1:55 AM,26.1,21.9,84,30.25,8.0,WSW,4.6,-,N/A,,Overcast,250,2013-01-03 07:55:00
2:10 AM,26.6,21.2,80,30.21,8.0,WSW,4.6,-,N/A,,Overcast,250,2013-01-03 08:10:00
2:55 AM,27.0,21.9,81,30.27,8.0,West,4.6,-,N/A,,Overcast,270,2013-01-03 08:55:00
3:55 AM,26.1,21.9,84,30.27,8.0,West,6.9,-,N/A,,Overcast,270,2013-01-03 09:55:00
4:55 AM,26.1,21.9,84,30.28,7.0,West,4.6,-,N/A,,Overcast,260,2013-01-03 10:55:00
5:55 AM,24.1,21.0,88,30.29,6.0,Calm,Calm,-,N/A,,Scattered Clouds,0,2013-01-03 11:55:00
6:55 AM,23.0,21.0,92,30.30,5.0,Calm,Calm,-,N/A,,Clear,0,2013-01-03 12:55:00
7:55 AM,21.0,19.9,96,30.32,4.0,West,5.8,-,N/A,,Partly Cloudy,270,2013-01-03 13:55:00
8:55 AM,25.0,21.9,88,30.34,5.0,West,5.8,-,N/A,,Overcast,280,2013-01-03 14:55:00
9:55 AM,28.9,24.1,82,30.37,8.0,West,5.8,-,N/A,,Overcast,280,2013-01-03 15:55:00
10:55 AM,30.9,25.0,79,30.38,10.0,WNW,9.2,-,N/A,,Overcast,300,2013-01-03 16:55:00
11:55 AM,33.1,23.0,66,30.36,10.0,WNW,9.2,-,N/A,,Overcast,300,2013-01-03 17:55:00
12:55 PM,33.1,23.0,66,30.34,10.0,WNW,10.4,-,N/A,,Overcast,300,2013-01-03 18:55:00
1:55 PM,32.0,23.0,69,30.35,10.0,WNW,9.2,-,N/A,,Overcast,300,2013-01-03 19:55:00
2:10 PM,32.0,23.0,69,30.30,10.0,West,10.4,-,N/A,,Overcast,280,2013-01-03 20:10:00
2:55 PM,33.1,23.0,66,30.35,10.0,WNW,13.8,-,N/A,,Mostly Cloudy,290,2013-01-03 20:55:00
3:55 PM,30.9,21.0,67,30.37,10.0,WNW,9.2,-,N/A,,Clear,290,2013-01-03 21:55:00
4:55 PM,27.0,16.0,63,30.39,10.0,WNW,10.4,-,N/A,,Clear,300,2013-01-03 22:55:00
5:55 PM,24.1,14.0,65,30.41,10.0,WNW,8.1,-,N/A,,Clear,300,2013-01-03 23:55:00
6:55 PM,21.9,12.0,66,30.43,10.0,WNW,9.2,-,N/A,,Clear,300,2013-01-04 00:55:00
7:55 PM,19.9,10.9,68,30.44,10.0,WNW,5.8,-,N/A,,Clear,300,2013-01-04 01:55:00
8:55 PM,17.1,10.0,74,30.44,10.0,WNW,4.6,-,N/A,,Clear,290,2013-01-04 02:55:00
9:55 PM,14.0,10.0,84,30.44,10.0,Calm,Calm,-,N/A,,Clear,0,2013-01-04 03:55:00
10:55 PM,10.9,7.0,84,30.42,10.0,Calm,Calm,-,N/A,,Clear,0,2013-01-04 04:55:00
11:55 PM,8.1,5.0,87,30.41,10.0,West,4.6,-,N/A,,Clear,270,2013-01-04 05:55:00